K9DC Weather Reports


Display with metric or nautical units.
time (UTC)temp
F
wind
direction
speed
MPH
gust
MPH
rain 1hr
in
rain 24hr
in
rain mn
in
humidity
%
barometer
mb
20260503184504 63 231 8.0 19.0 0.00 0.00 0.00 43 1014.2
20260503184005 63 217 6.0 19.0 0.00 0.00 0.00 41 1014.1
20260503183503 62 209 6.0 16.0 0.00 0.00 0.00 44 1014.4
20260503183003 62 207 6.0 16.0 0.00 0.00 0.00 44 1014.4
20260503182504 61 224 5.0 14.0 0.00 0.00 0.00 44 1014.7
20260503182005 61 219 5.0 13.0 0.00 0.00 0.00 43 1015.1
20260503181505 61 231 5.0 14.0 0.00 0.00 0.00 44 1015.1
20260503181005 60 234 7.0 16.0 0.00 0.00 0.00 43 1015.2
20260503180504 60 223 6.0 17.0 0.00 0.00 0.00 42 1015.5
20260503180005 60 231 6.0 17.0 0.00 0.00 0.00 43 1015.4
20260503175503 60 230 7.0 14.0 0.00 0.00 0.00 41 1015.6
20260503175004 60 230 7.0 16.0 0.00 0.00 0.00 41 1015.6
20260503174504 60 237 7.0 16.0 0.00 0.00 0.00 40 1015.7
20260503174003 61 249 7.0 16.0 0.00 0.00 0.00 42 1015.7
20260503173503 61 245 8.0 16.0 0.00 0.00 0.00 41 1015.9
20260503173003 61 229 9.0 16.0 0.00 0.00 0.00 39 1016.0
20260503172505 61 225 8.0 17.0 0.00 0.00 0.00 38 1016.1
20260503172004 62 243 8.0 20.0 0.00 0.00 0.00 37 1016.2
20260503171504 62 245 9.0 20.0 0.00 0.00 0.00 36 1016.2
20260503171003 62 249 9.0 21.0 0.00 0.00 0.00 40 1016.3
20260503170503 63 254 7.0 21.0 0.00 0.00 0.00 38 1016.4
20260503151003 59 251 9.0 18.0 0.00 0.00 0.00 45 1017.5
20260503150506 58 245 10.0 18.0 0.00 0.00 0.00 40 1017.5
20260503131003 36 244 3.0 10.0 0.00 0.00 0.00 81 1017.9
20260503130503 36 246 4.0 11.0 0.00 0.00 0.00 81 1018.0
20260503110504 36 322 1.0 3.0 0.00 0.00 0.00 81 1017.6
20260503090504 36 322 1.0 3.0 0.00 0.00 0.00 80 1017.2
20260503081503 36 322 1.0 3.0 0.00 0.00 0.00 80 1017.3
20260503081003 37 322 1.0 3.0 0.00 0.00 0.00 80 1017.2
20260503080503 37 322 1.0 3.0 0.00 0.00 0.00 80 1017.3
20260503072503 37 322 1.0 3.0 0.00 0.00 0.00 80 1017.2
20260503072003 37 322 1.0 3.0 0.00 0.00 0.00 79 1017.3
20260503071504 37 322 1.0 3.0 0.00 0.00 0.00 79 1017.3
20260503071004 37 322 1.0 3.0 0.00 0.00 0.00 79 1017.3
20260503070504 37 322 1.0 3.0 0.00 0.00 0.00 79 1017.3
20260503055003 38 321 0.0 2.0 0.00 0.00 0.00 78 1017.7
20260503054503 38 321 1.0 3.0 0.00 0.00 0.00 78 1017.7
20260503054004 38 321 0.0 3.0 0.00 0.00 0.00 78 1017.8
20260503053503 38 321 0.0 2.0 0.00 0.00 0.00 78 1017.7
20260503053003 38 321 0.0 2.0 0.00 0.00 0.00 78 1017.8
20260503052504 38 322 1.0 3.0 0.00 0.00 0.00 78 1017.8
20260503052003 38 322 2.0 3.0 0.00 0.00 0.00 78 1017.9
20260503051504 39 322 1.0 3.0 0.00 0.00 0.00 78 1017.8
20260503051003 39 322 1.0 2.0 0.00 0.00 0.00 77 1017.9
20260503050503 39 322 1.0 2.0 0.00 0.00 0.00 77 1017.9
20260503050004 39 322 1.0 2.0 0.00 0.00 0.00 77 1017.9
20260503045505 39 322 1.0 3.0 0.00 0.00 0.00 77 1017.9
20260503045004 39 322 1.0 3.0 0.00 0.00 0.00 76 1017.9
20260503044503 39 322 2.0 3.0 0.00 0.00 0.00 76 1017.9
20260503044004 39 322 1.0 3.0 0.00 0.00 0.00 76 1017.9
20260503043503 39 322 1.0 2.0 0.00 0.00 0.00 75 1017.9
20260503043003 39 322 1.0 2.0 0.00 0.00 0.00 75 1017.9
20260503042503 39 322 1.0 3.0 0.00 0.00 0.00 74 1017.9
20260503042003 39 321 1.0 3.0 0.00 0.00 0.00 74 1017.9
20260503041503 39 322 1.0 2.0 0.00 0.00 0.00 74 1017.8
20260503041004 40 322 1.0 2.0 0.00 0.00 0.00 73 1017.8
20260503040503 40 321 0.0 2.0 0.00 0.00 0.00 73 1017.9
20260503040004 40 321 0.0 2.0 0.00 0.00 0.00 72 1017.9
20260503035503 40 321 0.0 2.0 0.00 0.00 0.00 72 1017.9
20260503035005 40 0 0.0 0.0 0.00 0.00 0.00 72 1017.9
20260503034504 40 0 0.0 0.0 0.00 0.00 0.00 71 1017.8
20260503034003 40 0 0.0 0.0 0.00 0.00 0.00 70 1017.8
20260503033505 40 0 0.0 0.0 0.00 0.00 0.00 70 1017.8
20260503033003 41 0 0.0 0.0 0.00 0.00 0.00 69 1017.8
20260503032503 41 0 0.0 0.0 0.00 0.00 0.00 69 1017.9
20260503032003 41 0 0.0 0.0 0.00 0.00 0.00 68 1017.9
20260503031505 41 0 0.0 0.0 0.00 0.00 0.00 68 1017.9
20260503031004 41 0 0.0 0.0 0.00 0.00 0.00 67 1017.9
20260503030504 41 0 0.0 0.0 0.00 0.00 0.00 66 1017.9
20260503030003 41 0 0.0 0.0 0.00 0.00 0.00 65 1018.0
20260503025504 42 0 0.0 0.0 0.00 0.00 0.00 64 1018.1
20260503025003 42 0 0.0 0.0 0.00 0.00 0.00 63 1018.1
20260503024503 42 0 0.0 0.0 0.00 0.00 0.00 62 1018.1
20260503024003 42 0 0.0 0.0 0.00 0.00 0.00 61 1018.0
20260503023504 42 0 0.0 0.0 0.00 0.00 0.00 60 1017.9
20260503023004 43 0 0.0 0.0 0.00 0.00 0.00 60 1017.9
20260503022503 43 0 0.0 0.0 0.00 0.00 0.00 59 1017.8
20260503022003 43 0 0.0 0.0 0.00 0.00 0.00 58 1017.8
20260503021503 43 0 0.0 0.0 0.00 0.00 0.00 57 1017.8
20260503021004 44 0 0.0 0.0 0.00 0.00 0.00 57 1017.8
20260503020503 44 0 0.0 0.0 0.00 0.00 0.00 56 1017.7
20260503020004 44 0 0.0 0.0 0.00 0.00 0.00 54 1017.7
20260503015504 44 0 0.0 0.0 0.00 0.00 0.00 53 1017.6
20260503015003 45 0 0.0 0.0 0.00 0.00 0.00 52 1017.6
20260503014504 45 0 0.0 0.0 0.00 0.00 0.00 52 1017.5
20260503014005 46 0 0.0 0.0 0.00 0.00 0.00 51 1017.5
20260503013503 46 0 0.0 0.0 0.00 0.00 0.00 49 1017.5
20260503013003 46 0 0.0 0.0 0.00 0.00 0.00 49 1017.4
20260503012503 47 0 0.0 0.0 0.00 0.00 0.00 47 1017.4
20260503012004 47 0 0.0 0.0 0.00 0.00 0.00 47 1017.4
20260503011503 48 0 0.0 0.0 0.00 0.00 0.00 48 1017.4
20260503011004 48 0 0.0 0.0 0.00 0.00 0.00 46 1017.3
20260503010503 49 0 0.0 0.0 0.00 0.00 0.00 45 1017.3
20260503010004 49 322 0.0 1.0 0.00 0.00 0.00 45 1017.2
20260503005504 50 321 0.0 1.0 0.00 0.00 0.00 45 1017.2
20260503005003 50 322 1.0 3.0 0.00 0.00 0.00 44 1017.2
20260503004503 50 322 1.0 3.0 0.00 0.00 0.00 44 1017.3
20260503004004 51 322 1.0 5.0 0.00 0.00 0.00 42 1017.3
20260503003504 51 321 2.0 5.0 0.00 0.00 0.00 40 1017.3
20260503003003 51 321 2.0 5.0 0.00 0.00 0.00 38 1017.3
20260503002503 51 321 1.0 4.0 0.00 0.00 0.00 38 1017.2
20260503002004 51 316 2.0 9.0 0.00 0.00 0.00 39 1017.2
20260503001504 51 312 4.0 9.0 0.00 0.00 0.00 38 1017.2
20260503001003 51 311 3.0 10.0 0.00 0.00 0.00 37 1017.1
20260503000503 51 314 3.0 10.0 0.00 0.00 0.00 37 1017.1
20260503000003 51 318 3.0 10.0 0.00 0.00 0.00 37 1017.1
20260502235503 51 320 3.0 11.0 0.00 0.00 0.00 36 1017.1
20260502235004 51 320 3.0 12.0 0.00 0.00 0.00 36 1017.0
20260502234504 51 320 3.0 12.0 0.00 0.00 0.00 37 1017.0
20260502234004 51 318 3.0 8.0 0.00 0.00 0.00 36 1017.0
20260502233503 51 318 3.0 11.0 0.00 0.00 0.00 36 1017.0
20260502233004 52 320 2.0 11.0 0.00 0.00 0.00 36 1016.9
20260502232504 52 324 1.0 8.0 0.00 0.00 0.00 36 1017.0
20260502232004 52 325 0.0 8.0 0.00 0.00 0.00 36 1016.9
20260502231503 52 326 1.0 8.0 0.00 0.00 0.00 37 1017.0
20260502231003 52 334 1.0 8.0 0.00 0.00 0.00 36 1017.0
20260502230504 52 338 1.0 6.0 0.00 0.00 0.00 36 1017.2
20260502230006 52 328 2.0 9.0 0.00 0.00 0.00 35 1017.1
20260502225504 52 323 2.0 11.0 0.00 0.00 0.00 34 1017.2
20260502225004 53 324 1.0 11.0 0.00 0.00 0.00 34 1017.1
20260502224503 53 316 3.0 18.0 0.00 0.00 0.00 35 1017.1
20260502224003 52 313 4.0 18.0 0.00 0.00 0.00 36 1017.2
20260502223507 52 312 3.0 11.0 0.00 0.00 0.00 35 1017.1
20260502223004 53 314 2.0 11.0 0.00 0.00 0.00 35 1017.2
20260502222504 53 318 1.0 11.0 0.00 0.00 0.00 35 1017.1
20260502222004 53 323 1.0 8.0 0.00 0.00 0.00 34 1017.2
20260502221503 53 335 1.0 8.0 0.00 0.00 0.00 36 1017.2
20260502221003 54 14 0.0 5.0 0.00 0.00 0.00 34 1017.2
20260502220503 54 334 0.0 7.0 0.00 0.00 0.00 34 1017.1
20260502220004 54 323 1.0 9.0 0.00 0.00 0.00 32 1017.1
20260502215504 54 320 0.0 9.0 0.00 0.00 0.00 34 1017.1
20260502215003 54 301 1.0 9.0 0.00 0.00 0.00 35 1017.0
20260502214503 53 309 4.0 12.0 0.00 0.00 0.00 38 1017.0
20260502214004 53 314 5.0 12.0 0.00 0.00 0.00 35 1017.1
20260502213504 53 313 4.0 11.0 0.00 0.00 0.00 35 1017.1
20260502213003 54 317 4.0 17.0 0.00 0.00 0.00 34 1017.1
20260502212503 54 320 3.0 17.0 0.00 0.00 0.00 34 1017.0
20260502212003 54 313 0.0 11.0 0.00 0.00 0.00 34 1017.0
20260502211504 54 318 2.0 11.0 0.00 0.00 0.00 35 1017.0
20260502211004 54 313 5.0 14.0 0.00 0.00 0.00 34 1017.0
20260502210503 55 309 4.0 17.0 0.00 0.00 0.00 36 1016.9
20260502210003 54 313 2.0 17.0 0.00 0.00 0.00 35 1016.9
20260502205504 54 324 2.0 11.0 0.00 0.00 0.00 37 1017.0
20260502205003 55 325 1.0 11.0 0.00 0.00 0.00 35 1017.1
20260502204504 54 332 1.0 8.0 0.00 0.00 0.00 36 1017.0
20260502204004 54 320 2.0 9.0 0.00 0.00 0.00 35 1017.1
20260502203503 54 316 4.0 13.0 0.00 0.00 0.00 36 1017.1
20260502203003 54 315 3.0 13.0 0.00 0.00 0.00 34 1017.1
20260502202504 54 310 1.0 8.0 0.00 0.00 0.00 35 1017.1
20260502202004 54 323 2.0 9.0 0.00 0.00 0.00 35 1017.2
20260502201503 54 321 2.0 12.0 0.00 0.00 0.00 34 1017.1
20260502201003 54 322 2.0 12.0 0.00 0.00 0.00 37 1017.2
20260502200504 54 325 3.0 10.0 0.00 0.00 0.00 36 1017.2
20260502200004 54 318 2.0 13.0 0.00 0.00 0.00 34 1017.3
20260502195504 55 317 1.0 13.0 0.00 0.00 0.00 34 1017.3
20260502195003 55 307 1.0 11.0 0.00 0.00 0.00 36 1017.3
20260502194503 54 277 3.0 11.0 0.00 0.00 0.00 38 1017.4
20260502194004 54 292 4.0 15.0 0.00 0.00 0.00 39 1017.3
20260502193504 53 316 2.0 15.0 0.00 0.00 0.00 36 1017.4
20260502193003 53 322 1.0 9.0 0.00 0.00 0.00 38 1017.5
20260502192503 54 328 1.0 9.0 0.00 0.00 0.00 34 1017.6
20260502192003 54 333 2.0 11.0 0.00 0.00 0.00 34 1017.6
20260502191504 54 332 1.0 11.0 0.00 0.00 0.00 37 1017.6
20260502191004 54 328 1.0 7.0 0.00 0.00 0.00 42 1017.6
20260502190503 53 329 2.0 12.0 0.00 0.00 0.00 35 1017.7
20260502190004 54 324 3.0 12.0 0.00 0.00 0.00 36 1017.8
20260502185504 54 320 4.0 12.0 0.00 0.00 0.00 36 1017.7
20260502185004 54 317 4.0 14.0 0.00 0.00 0.00 37 1017.8